[[{"header":{"parameterUnit":"m.s-1","parameterCategory":1,"la1":30.2992,"la2":30.254,"lo1":-89.0895,"lo2":-89.0443,"dy":0.0025,"dx":0.0025,"nx":19,"ny":19,"refTime":"2026-05-18T09:00:00:Z","depth":0,"parameterNumber":2,"parameterNumberName":"U-component_of_WINDS"},"data":[0,0,0,-1.92,-1.92,-1.9179,-1.9179,-1.9172,-1.9172,0,0,0,0,0,0,0,0,0,0,0,-1.9218,-1.9218,-1.92,-1.92,-1.9179,-1.9179,-1.9172,-1.9172,0,0,0,0,0,0,0,0,0,0,0,-1.9218,-1.9218,-1.9219,-1.92,-1.9179,-1.9179,-1.9172,-1.9181,0,0,0,0,0,0,0,0,0,0,-1.9198,-1.9226,-1.9218,-1.9219,-1.92,-1.9179,-1.9179,-1.9181,-1.918,-1.919,0,-1.9202,0,-1.9187,-1.9173,-1.9173,0,0,0,-1.9191,-1.9226,-1.921,-1.9219,-1.92,-1.9179,-1.9186,-1.918,-1.918,-1.9189,-1.9201,-1.9201,-1.9187,-1.9173,-1.9173,-1.926,-1.9261,0,0,-1.9192,-1.9221,-1.9211,-1.921,-1.9215,-1.9187,-1.9186,-1.918,-1.9195,-1.9201,-1.92,-1.9187,-1.9173,-1.9173,-1.9259,-1.926,0,0,0,-1.9202,-1.9222,-1.9205,-1.9211,-1.9206,-1.9186,-1.9185,-1.9195,-1.9187,-1.92,-1.9187,-1.9173,-1.9173,-1.9258,-1.9259,-1.9328,0,0,0,-1.9202,-1.9227,-1.9206,-1.9223,-1.9206,-1.92,-1.9201,-1.9188,-1.9186,-1.9187,-1.9173,-1.9174,-1.9257,-1.9259,-1.9324,-1.9355,0,0,0,-1.9215,-1.9229,-1.923,-1.9225,-1.9217,-1.9199,-1.9191,-1.9187,-1.9179,-1.9173,-1.9174,-1.9256,-1.9258,-1.932,-1.9349,-1.9387,0,0,0,-1.9238,-1.929,-1.9231,-1.9285,-1.9218,-1.9242,-1.9191,-1.9208,-1.9211,-1.9173,-1.9257,-1.9259,-1.9319,-1.9346,-1.9383,-1.9423,-1.9442,0,0,-1.932,-1.9301,-1.933,-1.9277,-1.9319,-1.9243,-1.9295,-1.9271,-1.9245,-1.9256,-1.9258,-1.9325,-1.9349,-1.9386,-1.9541,-1.9556,0,0,0,-1.9366,-1.9387,-1.9392,-1.9397,-1.9381,-1.9369,-1.9335,-1.9326,-1.9335,-1.9257,-1.9348,-1.9361,-1.9382,-1.9399,-1.9412,-1.9428,-1.9269,-1.9268,-1.9268,-1.9522,-1.9485,-1.9531,-1.9493,-1.9499,-1.9463,-1.9465,-1.9447,-1.9408,-1.9431,-1.9433,-1.9532,-1.9554,-1.9563,-1.9581,-1.9452,-1.9452,-1.9452,-1.9452,-1.9638,-1.9662,-1.9611,-1.9637,-1.9599,-1.962,-1.9589,-1.9561,-1.9575,-1.9526,-1.9542,-1.9492,-1.9582,-1.9595,-1.9457,-1.9456,-1.9456,-1.9455,-1.9455,-1.9736,-1.9741,-1.973,-1.9735,-1.9742,-1.9702,-1.9719,-1.9683,-1.965,-1.9666,-1.9665,-1.9664,-1.9658,-1.9668,-1.9668,-1.9669,-1.9669,-1.9669,-1.967,-1.9841,-1.9827,-1.9845,-1.9834,-1.9833,-1.9827,-1.9793,-1.9791,-1.978,-1.9753,-1.9753,-1.9712,-1.9597,-1.9569,-1.9675,-1.9674,-1.9673,-1.9673,-1.9672,-1.9972,-1.9937,-1.9966,-1.9966,-1.9949,-1.9959,-1.9914,-1.9914,-1.9907,-1.9917,-1.9874,-1.9794,-1.9773,-1.9762,-1.9738,-1.9881,-1.9881,-1.9881,-1.9881,-2.0055,-2.0041,-2.0062,-2.0064,-2.0061,-2.0024,-2.0058,-2.0033,-2.0001,-1.9995,-1.9969,-1.9935,-1.9926,-1.9909,-1.9895,-1.9873,-2.0047,-2.0047,-2.0047,-2.0133,-2.0118,-2.0153,-2.0122,-2.0107,-2.0095,-2.0126,-2.0131,-2.0087,-2.0053,-1.9989,-1.9982,-1.9927,-1.9911,-1.9874,-1.9853,-1.9811,0,0]},{"header":{"parameterUnit":"m.s-1","parameterCategory":1,"la1":30.2992,"la2":30.254,"lo1":-89.0895,"lo2":-89.0443,"dy":0.0025,"dx":0.0025,"nx":19,"ny":19,"refTime":"2026-05-18T09:00:00:Z","depth":0,"parameterNumber":3,"parameterNumberName":"V-component_of_WINDS"},"data":[0,0,0,-0.1163,-0.1165,-0.1236,-0.1236,-0.1323,-0.1324,0,0,0,0,0,0,0,0,0,0,0,-0.1138,-0.1139,-0.1163,-0.1165,-0.1236,-0.1236,-0.1323,-0.1324,0,0,0,0,0,0,0,0,0,0,0,-0.1138,-0.1139,-0.1139,-0.1165,-0.1236,-0.1236,-0.1323,-0.1271,0,0,0,0,0,0,0,0,0,0,-0.1203,-0.1176,-0.1139,-0.1139,-0.1165,-0.1236,-0.1237,-0.1269,-0.1274,-0.1289,0,-0.1299,0,-0.1313,-0.133,-0.133,0,0,0,-0.1168,-0.1171,-0.1193,-0.1139,-0.1166,-0.1236,-0.1205,-0.1272,-0.1278,-0.1296,-0.1301,-0.1304,-0.1314,-0.133,-0.133,-0.1398,-0.1399,0,0,-0.1164,-0.115,-0.1189,-0.1197,-0.1184,-0.1203,-0.1207,-0.1276,-0.1281,-0.1301,-0.1306,-0.1316,-0.1331,-0.1331,-0.1398,-0.1399,0,0,0,-0.1151,-0.1147,-0.1168,-0.1194,-0.1207,-0.1205,-0.121,-0.1277,-0.1285,-0.1307,-0.1317,-0.1331,-0.1332,-0.1398,-0.1398,-0.1391,0,0,0,-0.1149,-0.1139,-0.1166,-0.1158,-0.1205,-0.1243,-0.121,-0.1281,-0.1289,-0.1316,-0.1331,-0.1333,-0.1398,-0.1398,-0.1391,-0.1391,0,0,0,-0.1135,-0.1137,-0.1146,-0.1157,-0.1186,-0.1242,-0.1254,-0.1283,-0.1295,-0.133,-0.1333,-0.1398,-0.1398,-0.1391,-0.1391,-0.1404,0,0,0,-0.1117,-0.114,-0.1146,-0.1175,-0.1186,-0.1236,-0.1254,-0.1293,-0.1322,-0.1332,-0.1398,-0.1398,-0.1391,-0.1391,-0.1404,-0.1413,-0.1415,0,0,-0.1138,-0.1142,-0.1161,-0.1168,-0.1213,-0.1227,-0.1272,-0.1314,-0.1332,-0.1375,-0.1377,-0.1391,-0.1391,-0.1404,-0.1432,-0.1434,0,0,0,-0.1163,-0.1176,-0.1191,-0.1217,-0.1248,-0.1275,-0.1311,-0.1326,-0.1364,-0.135,-0.14,-0.14,-0.1409,-0.1414,-0.1415,-0.1424,-0.14,-0.14,-0.14,-0.1173,-0.1192,-0.1224,-0.1252,-0.1277,-0.1313,-0.1335,-0.1362,-0.1376,-0.1387,-0.1401,-0.1415,-0.142,-0.1422,-0.143,-0.1407,-0.1407,-0.1407,-0.1407,-0.1206,-0.1228,-0.1243,-0.1279,-0.13,-0.1331,-0.1366,-0.1374,-0.1407,-0.1407,-0.1415,-0.1414,-0.1423,-0.1431,-0.1406,-0.1406,-0.1406,-0.1407,-0.1407,-0.1216,-0.1229,-0.1246,-0.1285,-0.1313,-0.134,-0.137,-0.1388,-0.1405,-0.1414,-0.143,-0.143,-0.1433,-0.142,-0.142,-0.142,-0.142,-0.142,-0.142,-0.1219,-0.1238,-0.126,-0.1293,-0.1312,-0.1338,-0.1373,-0.1392,-0.1418,-0.1429,-0.143,-0.1442,-0.1419,-0.1413,-0.1421,-0.1421,-0.1421,-0.142,-0.142,-0.1247,-0.1243,-0.1277,-0.1295,-0.1335,-0.1361,-0.1383,-0.142,-0.1439,-0.1453,-0.1463,-0.1443,-0.1449,-0.1448,-0.1443,-0.1458,-0.1458,-0.1458,-0.1458,-0.1255,-0.1259,-0.1297,-0.1325,-0.1354,-0.1376,-0.1415,-0.1442,-0.147,-0.1482,-0.1483,-0.1478,-0.1476,-0.1483,-0.1481,-0.1477,-0.1501,-0.1501,-0.1501,-0.1273,-0.128,-0.1309,-0.1334,-0.1366,-0.1394,-0.143,-0.1462,-0.1493,-0.1503,-0.1493,-0.1491,-0.1483,-0.1479,-0.149,-0.1487,-0.148,0,0]}]]